Location: Unspecified
(40.7945°N, 111.1337°W)
Time: 17:34:14
(UTC-06:00)

Explorer 7 - All Passes

Search period start: 18 June 2019 00:00
Search period end: 28 June 2019 00:00
Orbit: 485 x 680 km, 50.3° (Epoch: 18 June)

Date Brightness Start Highest point End Pass type
(mag) Time Alt. Az. Time Alt. Az. Time Alt. Az.
18 Jun - 10:23:56 10° SSW 10:27:43 31° SE 10:31:45 10° ENE daylight
18 Jun - 12:03:45 10° WSW 12:08:09 56° NNW 12:12:48 10° NE daylight
18 Jun - 13:45:33 10° WNW 13:49:31 27° N 13:53:38 10° NE daylight
18 Jun - 15:26:56 10° NW 15:31:12 31° NNE 15:35:33 10° ENE daylight
18 Jun - 17:07:29 10° NW 17:12:23 80° NNE 17:17:18 10° ESE daylight
18 Jun - 18:48:53 10° W 18:52:38 22° SW 18:56:21 10° S daylight
19 Jun - 10:28:29 10° SW 10:32:39 49° SE 10:37:06 10° ENE daylight
19 Jun - 12:09:07 10° W 12:13:21 41° NNW 12:17:52 10° NE daylight
19 Jun - 13:50:59 10° WNW 13:54:54 25° N 13:58:57 10° NE daylight
19 Jun - 15:32:03 10° NW 15:36:31 36° NNE 15:41:03 10° E daylight
19 Jun - 17:12:36 10° WNW 17:17:28 71° SW 17:22:20 10° SE daylight
19 Jun - 18:55:04 10° W 18:57:26 14° SW 18:59:48 10° SSW daylight
20 Jun - 08:55:51 10° SSE 08:57:48 13° SE 08:59:46 10° E daylight
20 Jun - 10:33:21 10° SW 10:37:40 79° SE 10:42:17 10° ENE daylight
20 Jun - 12:14:34 10° W 12:18:39 33° NNW 12:22:57 10° NE daylight
20 Jun - 13:56:20 10° NW 14:00:17 26° N 14:04:21 10° ENE daylight
20 Jun - 15:37:07 10° NW 15:41:46 46° NNE 15:46:29 10° E daylight
20 Jun - 17:17:47 10° WNW 17:22:27 46° SW 17:27:07 10° SSE daylight
21 Jun - 08:59:21 10° S 09:02:34 22° SE 09:05:58 10° E daylight
21 Jun - 10:38:27 10° WSW 10:42:45 70° NNW 10:47:22 10° NE daylight
21 Jun - 12:20:03 10° WNW 12:23:58 28° N 12:28:05 10° NE daylight
21 Jun - 14:01:35 10° NW 14:05:38 28° N 14:09:49 10° ENE daylight
21 Jun - 15:42:09 10° NW 15:46:57 63° NNE 15:51:49 10° ESE daylight
21 Jun - 17:23:09 10° WNW 17:27:23 30° SW 17:31:37 10° SSE daylight
22 Jun - 09:03:38 10° SSW 09:07:26 35° SE 09:11:30 10° ENE daylight
22 Jun - 10:43:43 10° WSW 10:47:55 49° NNW 10:52:25 10° NE daylight
22 Jun - 12:25:32 10° WNW 12:29:20 26° N 12:33:19 10° NE daylight
22 Jun - 14:06:45 10° NW 14:10:58 32° NNE 14:15:20 10° E daylight
22 Jun - 15:47:13 10° WNW 15:52:04 89° NNE 15:56:59 10° SE daylight
22 Jun - 17:28:51 10° W 17:32:14 19° SW 17:35:38 10° S daylight
23 Jun - 09:08:18 10° SW 09:12:23 57° SE 09:16:46 10° ENE daylight
23 Jun - 10:49:07 10° W 10:53:09 37° NNW 10:57:28 10° NE daylight
23 Jun - 12:30:56 10° NW 12:34:43 25° N 12:38:39 10° ENE daylight
23 Jun - 14:11:50 10° NW 14:16:15 39° NNE 14:20:49 10° E daylight
23 Jun - 15:52:21 10° WNW 15:57:07 62° SW 16:01:57 10° SE daylight
23 Jun - 17:35:33 10° WSW 17:37:02 11° SW 17:38:30 10° SW daylight
24 Jun - 07:35:10 10° SSE 07:37:28 15° SE 07:39:52 10° E daylight
24 Jun - 09:13:14 10° SW 09:17:25 90° SSW 09:21:55 10° ENE daylight
24 Jun - 10:54:35 10° WNW 10:58:28 30° NNW 11:02:34 10° NE daylight
24 Jun - 12:36:15 10° NW 12:40:05 26° N 12:44:05 10° ENE daylight
24 Jun - 14:16:53 10° NW 14:21:29 51° NNE 14:26:14 10° ESE daylight
24 Jun - 15:57:36 10° WNW 16:02:05 40° SW 16:06:39 10° SSE daylight
25 Jun - 07:38:58 10° S 07:42:17 24° SE 07:45:46 10° ENE daylight
25 Jun - 09:18:24 10° WSW 09:22:32 61° NNW 09:26:59 10° NE daylight
25 Jun - 11:00:05 10° WNW 11:03:48 26° N 11:07:43 10° NE daylight
25 Jun - 12:41:27 10° NW 12:45:26 28° NNE 12:49:35 10° ENE daylight
25 Jun - 14:21:55 10° NW 14:26:39 70° NNE 14:31:31 10° ESE daylight
25 Jun - 16:03:03 10° WNW 16:07:00 25° SW 16:11:00 10° S daylight
26 Jun - 07:43:22 10° SSW 07:47:10 40° SE 07:51:13 10° ENE daylight
26 Jun - 09:23:43 10° W 09:27:44 43° NNW 09:32:02 10° NE daylight
26 Jun - 11:05:31 10° WNW 11:09:10 24° N 11:12:59 10° NE daylight
26 Jun - 12:46:35 10° NW 12:50:45 33° NNE 12:55:06 10° E daylight
26 Jun - 14:27:00 10° WNW 14:31:45 81° SW 14:36:37 10° SE daylight
26 Jun - 16:08:56 10° W 16:11:51 16° SW 16:14:46 10° SSW daylight
27 Jun - 07:48:08 10° SW 07:52:08 67° SE 07:56:27 10° ENE daylight
27 Jun - 09:29:08 10° W 09:33:00 33° NNW 09:37:04 10° NE daylight
27 Jun - 11:10:54 10° NW 11:14:33 24° N 11:18:21 10° ENE daylight
27 Jun - 12:51:39 10° NW 12:56:01 41° NNE 13:00:34 10° E daylight
27 Jun - 14:32:09 10° WNW 14:36:46 53° SW 14:41:30 10° SE daylight
